Tracking 28790 objects as of 19-Apr-2024
HD Live streaming from Space Station
objects crossing your sky now

SL-12 R/B(2)

Track SL-12 R/B(2) now!


NORAD ID: 20394
Int'l Code: 1989-101D
Perigee: 36,326.9 km
Apogee: 36,415.6 km
Inclination: 14.0 °
Period: 1,465.7 minutes
Semi major axis: 42742 km
RCS: 2.3032 m2 (large)
Launch date: December 27, 1989
Source: Commonwealth of Independent States (former USSR) (CIS)
Launch site: TYURATAM MISSILE AND SPACE COMPLEX (TTMTR)

Note: This is a ROCKET BODY
Your satellite tracking list
Your tracking list is empty




NASA's NSSDC Master Catalog

Two Line Element Set (TLE):
1 20394U 89101D   24109.15802064 -.00000041  00000-0  00000-0 0  9995
2 20394  13.9906 342.8990 0010382 199.6597 349.6184  0.98246447111410
Source of the keplerian elements: AFSPC